Date String (YYYY-MM-DD hh:mm:ss) UTC,Instrument flags,Ambient pressure (hPa),Sample flow (lpm),Bypass flow (lpm),Sample temperature (°C),Ambient temperature (°C),ASC tube jacket temperature (°C),LED temperature (°C),Box temperature (°C),Sample RH (%),Span deviation,Mass concentration (μg/m³),Mass concentration (μg/m³),Mass concentration (μg/m³)
DateTimeUTC,F1_M11,P_M11,Q1_M11,Q2_M11,T1_M11,T2_M11,T3_M11,T4_M11,T5_M11,U1_M11,ZSPAN_M11,X2_M11,X0_M11,X1_M11
2022-03-02 12:00:00,,0829.7,4.99,0.00,27.1,26.2,00.0,36.0,28.8,09.9,0000.0,0000.46,0001.57,0000.34
2022-03-02 12:01:00,,0829.7,5.01,0.00,27.1,26.2,00.0,36.0,28.8,09.9,0000.0,0000.45,0001.55,0000.33
2022-03-02 12:02:00,,0829.7,5.01,0.00,27.1,26.2,00.0,36.0,28.8,09.9,0000.0,0000.43,0001.03,0000.32
2022-03-02 12:03:00,,0829.7,4.98,0.00,27.1,26.2,00.0,36.0,28.8,09.9,0000.0,0000.45,0000.80,0000.32
2022-03-02 12:04:00,,0829.7,5.00,0.00,27.1,26.2,00.0,36.0,28.8,09.9,0000.0,0000.44,0000.79,0000.31
2022-03-02 12:05:00,,0829.7,5.01,0.00,27.1,26.2,00.0,36.0,28.8,09.9,0000.0,0000.44,0000.78,0000.32
2022-03-02 12:06:00,,0829.7,5.01,0.00,27.1,26.2,00.0,36.0,28.8,09.9,0000.0,0000.42,0000.71,0000.31
2022-03-02 12:07:00,,0829.7,4.98,0.00,27.1,26.2,00.0,36.0,28.8,09.9,0000.0,0000.40,0000.69,0000.31
2022-03-02 12:08:00,,0829.7,5.01,0.00,27.0,26.2,00.0,36.1,28.8,09.9,0000.0,0000.37,0000.61,0000.30
2022-03-02 12:09:00,,0829.7,5.01,0.00,27.0,26.2,00.0,36.0,28.8,09.9,0000.0,0000.37,0001.80,0000.30
2022-03-02 12:10:00,,0829.7,4.99,0.00,27.0,26.1,00.0,36.0,28.7,09.8,0000.0,0000.41,0001.99,0000.31
2022-03-02 12:11:00,,0829.6,4.99,0.00,27.0,26.1,00.0,36.0,28.7,09.8,0000.0,0000.42,0002.00,0000.31
2022-03-02 12:12:00,,0829.7,5.00,0.00,26.9,26.0,00.0,36.0,28.6,09.8,0000.0,0000.44,0002.09,0000.32
2022-03-02 12:13:00,,0829.7,4.99,0.00,26.9,26.0,00.0,36.0,28.6,09.8,0000.0,0000.47,0002.21,0000.31
2022-03-02 12:14:00,,0829.7,5.00,0.00,26.8,25.9,00.0,36.0,28.5,09.9,0000.0,0000.44,0002.16,0000.31
2022-03-02 12:15:00,,0829.6,5.00,0.00,26.8,25.9,00.0,36.0,28.5,09.9,0000.0,0000.43,0002.15,0000.30
2022-03-02 12:16:00,,0829.6,5.01,0.00,26.8,25.9,00.0,35.9,28.5,09.9,0000.0,0000.44,0002.17,0000.29
2022-03-02 12:17:00,,0829.6,4.98,0.00,26.8,25.8,00.0,35.9,28.5,09.9,0000.0,0000.44,0002.16,0000.29
2022-03-02 12:18:00,,0829.7,5.00,0.00,26.7,25.8,00.0,35.9,28.5,10.0,0000.0,0000.47,0002.17,0000.29
2022-03-02 12:19:00,,0829.6,5.00,0.00,26.7,25.8,00.0,35.9,28.5,10.0,0000.0,0000.52,0002.30,0000.29
2022-03-02 12:20:00,,0829.7,5.00,0.00,26.7,25.9,00.0,35.9,28.5,10.0,0000.0,0000.55,0001.58,0000.29
2022-03-02 12:21:00,,0829.7,4.99,0.00,26.7,25.8,00.0,35.8,28.4,10.0,0000.0,0000.53,0001.05,0000.29
2022-03-02 12:22:00,,0829.7,5.01,0.00,26.7,25.8,00.0,35.8,28.4,10.1,0000.0,0000.53,0001.05,0000.29
2022-03-02 12:23:00,,0829.7,5.01,0.00,26.7,25.8,00.0,35.8,28.4,10.1,0000.0,0000.50,0000.98,0000.29
2022-03-02 12:24:00,,0829.8,4.99,0.00,26.7,25.8,00.0,35.8,28.4,10.2,0000.0,0000.47,0000.83,0000.28
2022-03-02 12:25:00,,0829.7,5.00,0.00,26.6,25.7,00.0,35.8,28.3,10.2,0000.0,0000.47,0000.83,0000.29
2022-03-02 12:26:00,,0829.7,5.01,0.00,26.6,25.7,00.0,35.8,28.3,10.3,0000.0,0000.48,0000.83,0000.30
2022-03-02 12:27:00,,0829.7,5.01,0.00,26.5,25.6,00.0,35.7,28.2,10.1,0000.0,0000.47,0000.81,0000.30
2022-03-02 12:28:00,,0829.7,5.00,0.00,26.5,25.6,00.0,35.7,28.2,10.0,0000.0,0000.48,0000.83,0000.29
2022-03-02 12:29:00,,0829.7,4.98,0.00,26.5,25.6,00.0,35.7,28.2,10.0,0000.0,0000.43,0000.71,0000.28
2022-03-02 12:30:00,,0829.7,5.01,0.00,26.5,25.5,00.0,35.7,28.2,10.2,0000.0,0000.38,0000.58,0000.29
2022-03-02 12:31:00,,0829.6,5.00,0.00,26.4,25.5,00.0,35.6,28.2,10.3,0000.0,0000.36,0000.49,0000.29
2022-03-02 12:32:00,,0829.6,5.01,0.00,26.4,25.5,00.0,35.6,28.2,10.4,0000.0,0000.37,0000.53,0000.29
2022-03-02 12:33:00,,0829.6,4.99,0.00,26.4,25.5,00.0,35.6,28.2,10.4,0000.0,0000.36,0000.59,0000.28
2022-03-02 12:34:00,,0829.6,5.01,0.00,26.4,25.5,00.0,35.6,28.2,10.4,0000.0,0000.39,0000.70,0000.29
2022-03-02 12:35:00,,0829.6,5.01,0.00,26.4,25.5,00.0,35.6,28.2,10.4,0000.0,0000.42,0000.79,0000.30
2022-03-02 12:36:00,,0829.6,4.98,0.00,26.4,25.5,00.0,35.5,28.1,10.4,0000.0,0000.43,0000.80,0000.30
2022-03-02 12:37:00,,0829.6,5.01,0.00,26.4,25.5,00.0,35.5,28.1,10.5,0000.0,0000.45,0000.83,0000.31
2022-03-02 12:38:00,,0829.5,5.01,0.00,26.3,25.4,00.0,35.5,28.0,10.4,0000.0,0000.47,0000.88,0000.31
2022-03-02 12:39:00,,0829.5,5.01,0.00,26.3,25.4,00.0,35.5,28.0,10.4,0000.0,0000.48,0000.96,0000.32
2022-03-02 12:40:00,,0829.5,4.98,0.00,26.3,25.4,00.0,35.4,28.0,10.5,0000.0,0000.50,0001.29,0000.33
2022-03-02 12:41:00,,0829.6,5.00,0.00,26.2,25.3,00.0,35.4,27.9,10.6,0000.0,0000.52,0001.36,0000.34
2022-03-02 12:42:00,,0829.5,5.01,0.00,26.2,25.4,00.0,35.4,27.9,10.5,0000.0,0000.55,0001.43,0000.34
2022-03-02 12:43:00,,0829.5,4.99,0.00,26.2,25.4,00.0,35.4,27.9,10.5,0000.0,0000.55,0001.41,0000.34
2022-03-02 12:44:00,,0829.5,5.01,0.00,26.2,25.4,00.0,35.4,27.9,10.5,0000.0,0000.56,0001.35,0000.35
2022-03-02 12:45:00,,0829.5,5.01,0.00,26.2,25.4,00.0,35.3,27.9,10.5,0000.0,0000.54,0001.28,0000.35
2022-03-02 12:46:00,,0829.5,4.98,0.00,26.2,25.4,00.0,35.3,27.9,10.5,0000.0,0000.54,0001.24,0000.35
2022-03-02 12:47:00,,0829.5,5.01,0.00,26.2,25.4,00.0,35.3,27.9,10.5,0000.0,0000.53,0001.22,0000.35
2022-03-02 12:48:00,,0829.5,5.01,0.00,26.2,25.4,00.0,35.3,28.0,10.4,0000.0,0000.52,0001.21,0000.34
2022-03-02 12:49:00,,0829.5,4.98,0.00,26.2,25.4,00.0,35.3,28.0,10.3,0000.0,0000.52,0001.24,0000.34
2022-03-02 12:50:00,,0829.5,5.01,0.00,26.2,25.4,00.0,35.3,27.9,10.4,0000.0,0000.52,0001.20,0000.35
2022-03-02 12:51:00,,0829.5,5.02,0.00,26.2,25.3,00.0,35.3,27.9,10.4,0000.0,0000.51,0000.86,0000.35
2022-03-02 12:52:00,,0829.5,4.99,0.00,26.1,25.3,00.0,35.3,27.8,10.4,0000.0,0000.51,0000.84,0000.35
2022-03-02 12:53:00,,0829.5,5.01,0.00,26.1,25.3,00.0,35.3,27.8,10.3,0000.0,0000.51,0000.82,0000.34
2022-03-02 12:54:00,,0829.5,5.01,0.00,26.1,25.2,00.0,35.2,27.8,10.3,0000.0,0000.48,0000.79,0000.34
2022-03-02 12:55:00,,0829.5,4.99,0.00,26.1,25.2,00.0,35.2,27.8,10.3,0000.0,0000.47,0000.76,0000.33
2022-03-02 12:56:00,,0829.5,5.01,0.00,26.1,25.2,00.0,35.2,27.8,10.3,0000.0,0000.45,0000.72,0000.32
2022-03-02 12:57:00,,0829.5,5.01,0.00,26.1,25.2,00.0,35.2,27.8,10.3,0000.0,0000.43,0000.68,0000.31
2022-03-02 12:58:00,,0829.5,5.00,0.00,26.0,25.1,00.0,35.2,27.7,10.2,0000.0,0000.43,0000.67,0000.31
2022-03-02 12:59:00,,0829.5,5.00,0.00,26.0,25.1,00.0,35.2,27.7,09.8,0000.0,0000.41,0000.63,0000.30
